Tracking 27423 objects as of 8-Jun-2023
HD Live streaming from Space Station
objects crossing your sky now

STARLINK-3994

Track STARLINK-3994 now!
10-day predictions
STARLINK-3994 is classified as:


NORAD ID: 52633
Int'l Code: 2022-052AM
Perigee: 546.0 km
Apogee: 547.7 km
Inclination: 53.2 °
Period: 95.4 minutes
Semi major axis: 6917 km
RCS: Unknown
Launch date: May 14, 2022
Source: United States (US)
Launch site: AIR FORCE EASTERN TEST RANGE (AFETR)
Your satellite tracking list
Your tracking list is empty




NASA's NSSDC Master Catalog

Two Line Element Set (TLE):
1 52633U 22052AM  23159.57036000  .00000346  00000-0  39843-4 0  9995
2 52633  53.2165 101.2747 0001238  92.9893 267.1241 15.08838402 59263
Source of the keplerian elements: AFSPC